Terminal Aerodrome Forecast
Issued by NWS Duluth, MN

Home | Current Version | Previous Version | Text Only | Print | Product List | Glossary On
Versions: 1 2 3 4 5 6 7 8 9 10 11 12 13 14 15 16 17 18 19 20 21 22 23 24 25 26 27 28
000
FTUS43 KDLH 200800 AAA
TAFINL
TAF AMD
KINL 200850Z 2009/2106 32003KT P6SM SCT035
     FM201200 34005KT P6SM BKN025
     FM201700 36008KT P6SM BKN035
     FM202100 02007KT P6SM SCT040
     FM210000 VRB02KT P6SM SCT030=

USA.gov is the U.S. government's official web portal to all federal, state and local government web resources and services.